Tracking 27111 objects as of 28-Mar-2023
HD Live streaming from Space Station
objects crossing your sky now

ONEWEB-0209

Track ONEWEB-0209 now!
10-day predictions
ONEWEB-0209 is classified as:


NORAD ID: 48215
Int'l Code: 2021-031F
Perigee: 1,211.3 km
Apogee: 1,214.5 km
Inclination: 87.9 °
Period: 109.5 minutes
Semi major axis: 7583 km
RCS: Unknown
Launch date: April 25, 2021
Source: United Kingdom (UK)
Launch site: VOSTOCHNY COSMODROME (VOSTO)
Your satellite tracking list
Your tracking list is empty




NASA's NSSDC Master Catalog

Two Line Element Set (TLE):
1 48215U 21031F   23087.23232158 -.00000039  00000-0 -13923-3 0  9998
2 48215  87.9114 163.8800 0002113 100.6768 259.4599 13.14505153 93758
Source of the keplerian elements: AFSPC